Weather History for Minneapolis, MN

Change the Weather History Date:

Sunday, July 7, 2013

  Actual Average Record
Temperature  
Mean Temperature 82 °F 74 °F  
Max Temperature 91 °F 84 °F 101 °F (1936)
Min Temperature 73 °F 64 °F 44 °F (1891)
Degree Days  
Heating Degree Days 0 0  
Month to date heating degree days 0 0  
Since 1 June heating degree days 42 44  
Since 1 July heating degree days 0 0  
Cooling Degree Days 17 9  
Month to date cooling degree days 89 61  
Year to date cooling degree days 306 261  
Since 1 June cooling degree days 253 219  
Growing Degree Days 33 (Base 50)    
Moisture  
Dew Point 67 °F    
Average Humidity 64    
Maximum Humidity 84    
Minimum Humidity 44    
Precipitation  
Precipitation 0.03 in 0.13 in 3.00 in (1955)
Month to date precipitation 0.03 0.89  
Year to date precipitation 20.89 14.72  
Snow  
Snow 0.00 in 0.00 in 0.00 in ()
Month to date snowfall 0.0 0.0  
Since 1 June snowfall 0.0 0.0  
Since 1 July snowfall 0.0 0.0  
Snow Depth 0.00 in    
Sea Level Pressure  
Sea Level Pressure 29.83 in    
Wind  
Wind Speed 7 mph (SW)    
Max Wind Speed 23 mph    
Max Gust Speed 28 mph    
Visibility 9 miles    
Events Thunderstorm    
T = Trace of Precipitation, MM = Missing Value Source: NWS Daily Summary

Daily Weather History Graph

Daily Weather History Graph

Search for Another Location

Airport:

Trip Planner

Search our weather history database for the weather conditions in past years. The results will help you decide how hot, cold, wet, or windy it might be!

Date:

Astronomy

Jul. 07, 2013 Rise Set
Actual Time 5:34 AM CDT 9:00 PM CDT
Civil Twilight 4:57 AM CDT 9:37 PM CDT
Nautical Twilight 4:09 AM CDT 10:25 PM CDT
Astronomical Twilight 3:08 AM CDT 11:26 PM CDT
Moon 5:14 AM CDT (7/7) 8:21 PM CDT (7/7)
Length of Visible Light 16h 39m
Length of Day
15h 26m
Waning Crescent, 0% of the Moon is Illuminated
Jul 7
Waning Crescent
Jul 8
New
Jul 15
First Quarter
Jul 22
Full
Jul 29
Last Quarter

Hourly Weather History & Observations

Time (CDT) Temp. Heat Index Dew Point Humidity Pressure Visibility Wind Dir Wind Speed Gust Speed Precip Events Conditions
12:53 AM 82.9 °F 84.4 °F 64.0 °F 53% 29.82 in 10.0 mi South 9.2 mph - N/A   Overcast
1:53 AM 82.0 °F 83.8 °F 64.9 °F 56% 29.81 in 10.0 mi South 6.9 mph - N/A   Overcast
2:53 AM 82.0 °F 83.4 °F 64.0 °F 54% 29.82 in 10.0 mi SSW 9.2 mph - N/A   Overcast
3:53 AM 81.0 °F 82.7 °F 64.9 °F 58% 29.81 in 10.0 mi SSW 8.1 mph - N/A   Overcast
4:53 AM 80.1 °F 81.9 °F 64.9 °F 60% 29.82 in 10.0 mi SW 9.2 mph - N/A   Overcast
5:53 AM 79.0 °F - 64.9 °F 62% 29.82 in 8.0 mi SW 10.4 mph - N/A   Overcast
6:53 AM 78.1 °F - 64.9 °F 64% 29.83 in 8.0 mi SW 4.6 mph - N/A   Scattered Clouds
7:53 AM 78.1 °F - 64.9 °F 64% 29.84 in 8.0 mi SSW 5.8 mph - N/A   Scattered Clouds
8:53 AM 80.1 °F 82.1 °F 66.0 °F 62% 29.84 in 7.0 mi SSW 6.9 mph - N/A   Partly Cloudy
9:53 AM 82.0 °F 83.8 °F 64.9 °F 56% 29.84 in 8.0 mi SW 5.8 mph - N/A   Partly Cloudy
10:53 AM 82.9 °F 85.0 °F 66.0 °F 56% 29.84 in 8.0 mi SSW 4.6 mph - N/A   Partly Cloudy
11:53 AM 86.0 °F 88.8 °F 66.9 °F 53% 29.83 in 8.0 mi SE 5.8 mph - N/A   Partly Cloudy
12:53 PM 88.0 °F 90.7 °F 66.9 °F 49% 29.83 in 8.0 mi South 5.8 mph - N/A   Partly Cloudy
1:53 PM 89.1 °F 92.1 °F 66.9 °F 48% 29.83 in 9.0 mi South 6.9 mph - N/A   Scattered Clouds
2:53 PM 90.0 °F 92.8 °F 66.9 °F 46% 29.83 in 9.0 mi SE 5.8 mph - N/A   Mostly Cloudy
3:53 PM 91.0 °F 94.3 °F 66.9 °F 45% 29.82 in 9.0 mi South 9.2 mph - N/A   Mostly Cloudy
4:53 PM 90.0 °F 92.8 °F 66.9 °F 46% 29.81 in 9.0 mi SW 4.6 mph - N/A   Mostly Cloudy
5:53 PM 89.1 °F 92.9 °F 68.0 °F 50% 29.81 in 9.0 mi SW 5.8 mph - N/A   Overcast
6:53 PM 89.1 °F 92.9 °F 68.0 °F 50% 29.81 in 8.0 mi West 4.6 mph - N/A   Overcast
7:43 PM 84.2 °F 86.6 °F 66.2 °F 55% 29.85 in 9.0 mi North 17.3 mph 26.5 mph N/A   Overcast
7:53 PM 82.0 °F 84.5 °F 66.9 °F 60% 29.84 in 10.0 mi North 15.0 mph 25.3 mph N/A Thunderstorm Thunderstorm
8:16 PM 78.8 °F - 69.8 °F 74% 29.85 in 9.0 mi North 11.5 mph - 0.00 in   Mostly Cloudy
8:53 PM 78.1 °F - 70.0 °F 76% 29.86 in 10.0 mi North 8.1 mph - 0.00 in   Mostly Cloudy
9:53 PM 77.0 °F - 71.1 °F 82% 29.86 in 10.0 mi Calm Calm - 0.03 in   Mostly Cloudy
10:53 PM 75.0 °F - 68.0 °F 79% 29.86 in 10.0 mi NW 4.6 mph - N/A   Partly Cloudy
11:53 PM 73.9 °F - 68.0 °F 82% 29.87 in 10.0 mi NW 5.8 mph - N/A   Partly Cloudy